Weather History for Fort Drum, NY

Change the Weather History Date:

Monday, October 7, 2013

  Actual Average Record
Temperature  
Mean Temperature 61 °F -  
Max Temperature 71 °F 59 °F 71 °F (1997)
Min Temperature 49 °F 39 °F 23 °F (1999)
Degree Days  
Heating Degree Days 4    
Growing Degree Days 11 (Base 50)    
Moisture  
Dew Point 56 °F    
Average Humidity 92    
Maximum Humidity 100    
Minimum Humidity 73    
Precipitation  
Precipitation 1.15 in - - ()
Sea Level Pressure  
Sea Level Pressure 29.74 in    
Wind  
Wind Speed 16 mph (WSW)    
Max Wind Speed 25 mph    
Max Gust Speed 34 mph    
Visibility 7 miles    
Events Rain    
Averages and records for this station are not official NWS values.
T = Trace of Precipitation, MM = Missing Value Source: NWS Daily Summary

Daily Weather History Graph

Daily Weather History Graph

Search for Another Location

Airport:

Trip Planner

Search our weather history database for the weather conditions in past years. The results will help you decide how hot, cold, wet, or windy it might be!

Date:

Astronomy

Oct. 07, 2013 Rise Set
Actual Time 7:07 AM EDT 6:32 PM EDT
Civil Twilight 6:39 AM EDT 7:01 PM EDT
Nautical Twilight 6:05 AM EDT 7:34 PM EDT
Astronomical Twilight 5:31 AM EDT 8:08 PM EDT
Moon 10:01 AM EDT (10/7) 8:08 PM EDT (10/7)
Length of Visible Light 12h 22m
Length of Day
11h 24m
Waxing Crescent, 8% of the Moon is Illuminated
Oct 7
Waxing Crescent
Oct 11
First Quarter
Oct 18
Full
Oct 26
Last Quarter
Nov 3
New

Hourly Weather History & Observations

Time (EDT) Temp. Dew Point Humidity Pressure Visibility Wind Dir Wind Speed Gust Speed Precip Events Conditions
12:58 AM 63.9 °F 60.8 °F 90% 29.81 in 10.0 mi SSE 19.6 mph 25.3 mph N/A   Clear
1:59 AM 64.6 °F 61.3 °F 89% 29.79 in 10.0 mi SSE 19.6 mph 25.3 mph N/A   Mostly Cloudy
2:58 AM 64.0 °F 61.3 °F 91% 29.76 in 10.0 mi SE 17.3 mph - N/A   Clear
3:58 AM 67.8 °F 62.1 °F 82% 29.74 in 10.0 mi South 25.3 mph 34.5 mph N/A   Clear
4:58 AM 68.2 °F 61.3 °F 79% 29.73 in 10.0 mi SSE 20.7 mph 33.4 mph N/A   Clear
5:58 AM 67.5 °F 61.5 °F 81% 29.72 in 10.0 mi South 20.7 mph 25.3 mph N/A   Partly Cloudy
6:58 AM 65.3 °F 61.2 °F 86% 29.71 in 10.0 mi SSE 17.3 mph 26.5 mph N/A   Clear
7:58 AM 65.5 °F 60.8 °F 85% 29.69 in 10.0 mi SSE 20.7 mph 27.6 mph N/A   Clear
8:22 AM 66.2 °F 60.8 °F 83% 29.68 in 10.0 mi SSE 18.4 mph 26.5 mph N/A   Light Drizzle
8:23 AM 66.2 °F 60.8 °F 83% 29.68 in 10.0 mi SSE 18.4 mph 26.5 mph N/A   Scattered Clouds
8:58 AM 68.4 °F 61.7 °F 79% 29.67 in 10.0 mi South 18.4 mph - 0.00 in   Clear
9:58 AM 70.7 °F 62.1 °F 74% 29.62 in 10.0 mi SSE 20.7 mph 29.9 mph N/A   Partly Cloudy
10:58 AM 71.4 °F 62.6 °F 74% 29.59 in 10.0 mi South 20.7 mph 29.9 mph N/A   Mostly Cloudy
11:07 AM 71.6 °F 62.6 °F 73% 29.59 in 10.0 mi SSW 19.6 mph 31.1 mph N/A   Mostly Cloudy
11:09 AM 71.6 °F 62.6 °F 73% 29.61 in 10.0 mi SW 19.6 mph 31.1 mph N/A   Mostly Cloudy
11:10 AM 71.6 °F 62.6 °F 73% 29.63 in 10.0 mi WSW 19.6 mph 31.1 mph N/A   Mostly Cloudy
11:18 AM 64.4 °F 59.0 °F 83% 29.63 in 1.5 mi WNW 23.0 mph 29.9 mph N/A Rain Light Rain
11:23 AM 60.8 °F 59.0 °F 94% 29.64 in 1.2 mi West 18.4 mph 33.4 mph N/A Rain Heavy Rain
11:28 AM 60.8 °F 59.0 °F 94% 29.65 in 1.8 mi West 16.1 mph 33.4 mph N/A Rain Rain
11:33 AM 59.0 °F 59.0 °F 100% 29.65 in 1.8 mi West 12.7 mph 27.6 mph N/A Rain Heavy Rain
11:38 AM 59.0 °F 59.0 °F 100% 29.65 in 2.5 mi West 12.7 mph 25.3 mph N/A Rain Heavy Rain
11:48 AM 59.0 °F 59.0 °F 100% 29.66 in 3.0 mi WSW 9.2 mph 24.2 mph N/A Rain Rain
11:58 AM 59.5 °F 59.5 °F 100% 29.66 in 7.0 mi WSW 10.4 mph - 0.32 in Rain Light Rain
12:03 PM 59.0 °F 59.0 °F 100% 29.66 in 8.0 mi West 10.4 mph - N/A Rain Light Rain
12:08 PM 59.0 °F 59.0 °F 100% 29.67 in 8.0 mi West 11.5 mph - N/A Rain Light Rain
12:13 PM 59.0 °F 59.0 °F 100% 29.68 in 5.0 mi West 13.8 mph 18.4 mph N/A Rain Light Rain
12:18 PM 59.0 °F 59.0 °F 100% 29.67 in 4.0 mi West 10.4 mph 25.3 mph N/A Rain Heavy Rain
12:23 PM 59.0 °F 59.0 °F 100% 29.67 in 3.0 mi West 12.7 mph 25.3 mph N/A Rain Heavy Rain
12:28 PM 59.0 °F 59.0 °F 100% 29.67 in 2.0 mi West 8.1 mph 18.4 mph N/A Rain Heavy Rain
12:33 PM 59.0 °F 59.0 °F 100% 29.67 in 1.8 mi West 8.1 mph 18.4 mph N/A Rain Heavy Rain
12:38 PM 59.0 °F 59.0 °F 100% 29.67 in 2.0 mi West 9.2 mph 18.4 mph N/A Rain Heavy Rain
12:48 PM 59.0 °F 59.0 °F 100% 29.66 in 3.0 mi WSW 12.7 mph 20.7 mph N/A Rain Heavy Rain
12:58 PM 59.0 °F 59.0 °F 100% 29.66 in 3.0 mi WSW 12.7 mph 19.6 mph 0.25 in Rain Heavy Rain
1:23 PM 59.0 °F 59.0 °F 100% 29.65 in 10.0 mi WSW 11.5 mph - N/A Rain Light Rain
1:58 PM 57.7 °F 57.7 °F 100% 29.64 in 9.0 mi West 10.4 mph 18.4 mph 0.12 in Rain Light Rain
2:13 PM 57.2 °F 57.2 °F 100% 29.66 in 2.5 mi West 17.3 mph 34.5 mph N/A Rain Heavy Rain
2:18 PM 57.2 °F 57.2 °F 100% 29.67 in 3.0 mi West 18.4 mph 34.5 mph N/A Rain Rain
2:28 PM 55.4 °F 55.4 °F 100% 29.69 in 5.0 mi West 16.1 mph 29.9 mph N/A Rain Heavy Rain
2:48 PM 53.6 °F 53.6 °F 100% 29.70 in 5.0 mi West 17.3 mph 25.3 mph N/A Rain Rain
2:53 PM 53.6 °F 53.6 °F 100% 29.70 in 8.0 mi West 11.5 mph 25.3 mph N/A Rain Rain
2:58 PM 54.0 °F 54.0 °F 100% 29.70 in 9.0 mi West 13.8 mph 19.6 mph 0.15 in Rain Rain
3:03 PM 53.6 °F 53.6 °F 100% 29.71 in 9.0 mi West 13.8 mph 20.7 mph N/A Rain Rain
3:33 PM 53.6 °F 53.6 °F 100% 29.72 in 7.0 mi West 10.4 mph - N/A Rain Rain
3:43 PM 53.6 °F 53.6 °F 100% 29.72 in 10.0 mi West 11.5 mph - N/A Rain Light Rain
3:56 PM 53.6 °F 53.6 °F 100% - - West 10.4 mph - N/A   Overcast
3:58 PM 53.6 °F 53.6 °F 100% 29.72 in - West 9.2 mph - N/A   Overcast
3:59 PM 53.6 °F 53.6 °F 100% 29.72 in - West 10.4 mph 19.6 mph N/A Rain Light Rain
4:04 PM 53.6 °F 53.6 °F 100% 29.72 in 5.0 mi WSW 9.2 mph 19.6 mph N/A Rain Light Rain
4:12 PM 53.6 °F 53.6 °F 100% 29.72 in 10.0 mi WSW 8.1 mph 17.3 mph N/A   Overcast
4:17 PM 53.6 °F 53.6 °F 100% 29.71 in 10.0 mi WSW 8.1 mph 17.3 mph N/A   Overcast
4:58 PM 55.4 °F 55.4 °F 100% 29.72 in 10.0 mi WSW 8.1 mph - 0.01 in   Mostly Cloudy
5:58 PM 55.9 °F 49.8 °F 80% 29.75 in 10.0 mi SW 11.5 mph 23.0 mph N/A   Mostly Cloudy
6:58 PM 55.6 °F 48.0 °F 76% 29.79 in 10.0 mi WSW 10.4 mph 20.7 mph N/A   Scattered Clouds
7:58 PM 55.0 °F 47.3 °F 75% 29.82 in 10.0 mi SW 15.0 mph 21.9 mph N/A   Overcast
8:36 PM 55.4 °F 48.2 °F 77% 29.84 in 10.0 mi WSW 15.0 mph 29.9 mph N/A Rain Light Rain
8:52 PM 55.4 °F 48.2 °F 77% 29.84 in 10.0 mi WSW 18.4 mph 27.6 mph N/A   Mostly Cloudy
8:58 PM 55.0 °F 47.7 °F 76% 29.84 in 10.0 mi WSW 16.1 mph 27.6 mph 0.00 in   Mostly Cloudy
8:59 PM 55.4 °F 48.2 °F 77% 29.85 in 10.0 mi WSW 15.0 mph 27.6 mph N/A Rain Light Rain
9:28 PM 53.6 °F 48.2 °F 82% 29.86 in 10.0 mi SW 18.4 mph 27.6 mph N/A   Mostly Cloudy
9:32 PM 55.4 °F 48.2 °F 77% 29.86 in 10.0 mi SW 16.1 mph 27.6 mph N/A Rain Light Rain
9:52 PM 55.4 °F 50.0 °F 82% 29.88 in 5.0 mi WSW 15.0 mph 21.9 mph N/A Rain Light Rain
9:57 PM 53.6 °F 50.0 °F 88% 29.89 in 2.5 mi West 12.7 mph 21.9 mph N/A Rain Heavy Rain
9:58 PM 53.6 °F 50.0 °F 88% 29.89 in 2.5 mi West 12.7 mph 21.9 mph 0.08 in Rain Heavy Rain
10:03 PM 53.6 °F 51.8 °F 94% 29.89 in 1.5 mi West 15.0 mph 24.2 mph N/A Rain Heavy Rain
10:08 PM 51.8 °F 51.8 °F 100% 29.89 in 1.8 mi West 10.4 mph 24.2 mph N/A Rain Heavy Rain
10:13 PM 51.8 °F 51.8 °F 100% 29.89 in 4.0 mi WSW 10.4 mph 24.2 mph N/A Rain Light Rain
10:18 PM 51.8 °F 51.8 °F 100% 29.89 in 6.0 mi West 11.5 mph 24.2 mph N/A Rain Rain
10:38 PM 51.8 °F 51.8 °F 100% 29.91 in 10.0 mi West 8.1 mph - N/A Rain Light Rain
10:39 PM 51.8 °F 51.8 °F 100% 29.91 in 10.0 mi Variable 6.9 mph - N/A   Mostly Cloudy
10:58 PM 51.4 °F 50.2 °F 95% 29.92 in 10.0 mi West 6.9 mph - 0.22 in   Mostly Cloudy
11:58 PM 49.1 °F 46.4 °F 90% 29.97 in 10.0 mi West 5.8 mph - N/A   Clear